TimeCDT,TemperatureF,Dew PointF,Humidity,Sea Level PressureIn,VisibilityMPH,Wind Direction,Wind SpeedMPH,Gust SpeedMPH,PrecipitationIn,Events,Conditions,WindDirDegrees,DateUTC
12:52 AM,37.9,30.0,73,29.52,10.0,WSW,23.0,36.8,N/A,,Overcast,250,2013-04-19 05:52:00
1:52 AM,37.9,30.0,73,29.52,10.0,WSW,20.7,33.4,N/A,,Overcast,250,2013-04-19 06:52:00
2:35 AM,37.4,28.4,70,29.50,10.0,WSW,18.4,29.9,N/A,,Overcast,250,2013-04-19 07:35:00
2:52 AM,37.0,28.9,73,29.51,10.0,SW,25.3,35.7,N/A,,Overcast,230,2013-04-19 07:52:00
3:35 AM,37.4,30.2,75,29.50,10.0,WSW,17.3,25.3,N/A,,Overcast,250,2013-04-19 08:35:00
3:52 AM,37.0,28.9,73,29.51,10.0,WSW,21.9,32.2,N/A,,Overcast,250,2013-04-19 08:52:00
4:34 AM,35.6,28.4,75,29.50,10.0,WSW,18.4,27.6,N/A,,Overcast,250,2013-04-19 09:34:00
4:52 AM,36.0,28.9,76,29.51,10.0,WSW,17.3,26.5,N/A,,Overcast,250,2013-04-19 09:52:00
5:52 AM,36.0,28.9,76,29.51,10.0,West,18.4,28.8,N/A,,Overcast,260,2013-04-19 10:52:00
6:52 AM,36.0,30.0,79,29.52,10.0,WSW,20.7,27.6,0.00,,Overcast,250,2013-04-19 11:52:00
7:52 AM,36.0,28.9,76,29.53,10.0,WSW,23.0,36.8,0.00,,Overcast,240,2013-04-19 12:52:00
8:01 AM,35.6,30.2,81,29.53,10.0,West,20.7,32.2,N/A,,Overcast,260,2013-04-19 13:01:00
8:34 AM,37.4,28.4,70,29.53,10.0,WSW,19.6,33.4,N/A,,Overcast,250,2013-04-19 13:34:00
8:52 AM,37.0,30.0,76,29.55,10.0,WSW,19.6,40.3,0.00,Snow,Light Snow,240,2013-04-19 13:52:00
9:12 AM,35.6,30.2,81,29.54,8.0,WSW,23.0,40.3,0.00,Snow,Light Snow,250,2013-04-19 14:12:00
9:52 AM,36.0,28.9,76,29.56,5.0,WSW,19.6,33.4,0.00,Snow,Light Snow,250,2013-04-19 14:52:00
10:02 AM,35.6,28.4,75,29.55,8.0,WSW,19.6,36.8,0.00,Snow,Light Snow,250,2013-04-19 15:02:00
10:52 AM,37.0,30.0,76,29.58,9.0,WSW,18.4,36.8,0.00,,Overcast,250,2013-04-19 15:52:00
11:33 AM,37.4,30.2,75,29.57,10.0,WSW,26.5,35.7,0.00,,Overcast,240,2013-04-19 16:33:00
11:52 AM,37.9,28.9,70,29.59,10.0,WSW,28.8,41.4,0.00,,Overcast,250,2013-04-19 16:52:00
12:11 PM,37.4,28.4,70,29.58,10.0,WSW,24.2,33.4,N/A,,Overcast,250,2013-04-19 17:11:00
12:52 PM,37.9,30.0,73,29.62,10.0,WSW,25.3,39.1,0.00,Rain,Light Rain,240,2013-04-19 17:52:00
1:52 PM,37.9,28.9,70,29.65,10.0,WSW,29.9,39.1,0.00,,Overcast,250,2013-04-19 18:52:00
2:10 PM,37.4,28.4,70,29.64,10.0,WSW,23.0,36.8,N/A,,Overcast,250,2013-04-19 19:10:00
2:52 PM,37.9,30.0,73,29.67,10.0,WSW,20.7,38.0,0.00,,Overcast,250,2013-04-19 19:52:00
3:44 PM,37.4,28.4,70,29.67,10.0,West,18.4,31.1,0.00,,Overcast,260,2013-04-19 20:44:00
3:52 PM,39.0,28.9,67,29.69,10.0,West,25.3,29.9,0.00,,Overcast,270,2013-04-19 20:52:00
4:52 PM,37.9,30.0,73,29.72,10.0,West,18.4,28.8,0.00,,Overcast,260,2013-04-19 21:52:00
5:52 PM,37.9,28.9,70,29.75,9.0,West,21.9,28.8,0.00,,Overcast,260,2013-04-19 22:52:00
6:40 PM,35.6,30.2,81,29.76,5.0,West,19.6,24.2,0.00,Snow,Light Snow,270,2013-04-19 23:40:00
6:52 PM,36.0,30.0,79,29.79,9.0,West,16.1,26.5,0.00,,Overcast,270,2013-04-19 23:52:00
7:52 PM,35.1,28.9,78,29.83,3.0,West,16.1,25.3,0.00,,Haze,280,2013-04-20 00:52:00
8:19 PM,33.8,30.2,87,29.82,1.8,West,18.4,28.8,0.00,Snow,Light Snow,280,2013-04-20 01:19:00
8:28 PM,33.8,30.2,87,29.83,1.5,West,15.0,-,0.02,Snow,Light Snow,280,2013-04-20 01:28:00
8:42 PM,33.8,30.2,87,29.84,2.0,West,16.1,24.2,0.02,Snow,Light Snow,270,2013-04-20 01:42:00
8:49 PM,33.8,30.2,87,29.84,4.0,West,17.3,24.2,0.02,Snow,Light Snow,270,2013-04-20 01:49:00
8:52 PM,34.0,30.9,89,29.86,6.0,West,18.4,24.2,0.02,Snow,Light Snow,270,2013-04-20 01:52:00
9:52 PM,34.0,30.0,85,29.89,10.0,West,13.8,-,0.00,,Mostly Cloudy,270,2013-04-20 02:52:00
10:52 PM,35.1,28.0,76,29.91,10.0,West,19.6,25.3,N/A,,Overcast,270,2013-04-20 03:52:00
11:52 PM,34.0,28.0,79,29.94,10.0,West,16.1,23.0,0.00,,Overcast,280,2013-04-20 04:52:00